Regional Weather Roundup
Issued by NWS

Home | Current Version | Previous Version | Text Only | Print | Product List | Glossary Off
Versions: 1 2 3 4 5 6 7 8 9 10 11 12 13 14 15 16 17 18 19 20 21 22 23 24 25 26 27 28 29 30 31 32 33 34 35 36 37 38 39 40 41 42 43 44 45 46 47 48 49 50

000
ASUS43 KMKX 041800
RWRWI

WISCONSIN REGIONAL WEATHER ROUNDUP
NATIONAL WEATHER SERVICE MILWAUKEE/SULLIVAN WI
100 PM CDT MON MAY 04 2015

NOTE: "FAIR" INDICATES FEW OR NO CLOUDS BELOW 12,000 FEET WITH NO
SIGNIFICANT WEATHER AND/OR OBSTRUCTIONS TO VISIBILITY.

WIZ001-002-006>008-014>016-023>028-041900-
NORTHWEST WISCONSIN

CITY           SKY/WX    TMP DP  RH WIND       PRES   REMARKS
SUPERIOR ARPT  PTSUNNY   63  28  26 N5        30.20S
ASHLAND        MOSUNNY   64  33  31 N10       30.19S
6HR MIN TEMP:  44; 6HR MAX TEMP:  66;

HAYWARD        MOSUNNY   63  24  22 N8        30.19F
6HR MIN TEMP:  40; 6HR MAX TEMP:  64;

SIREN          MOSUNNY   65  28  24 N10       30.19F
CUMBERLAND     SUNNY     63  28  27 N9G17     30.19S
RICE LAKE      SUNNY     65  27  23 N5        30.20S
CHETEK         SUNNY     64  32  30 NW7G16    30.18S
LADYSMITH      MOSUNNY   64  32  30 N6        30.19S
EAU CLAIRE     SUNNY     67  31  26 NW8       30.17S
6HR MIN TEMP:  53; 6HR MAX TEMP:  68;

MENOMONIE      SUNNY     65  30  26 N6        30.19R
NEW RICHMOND   MOSUNNY   65  28  24 N12       30.19S
OSCEOLA        MOSUNNY   65  32  29 N6        30.22S
$$

WIZ003>005-009-010-017-018-041900-
NORTH CENTRAL WISCONSIN

CITY           SKY/WX    TMP DP  RH WIND       PRES   REMARKS
MANITOWISH WTR SUNNY     60  34  37 N7        30.18R
ARBOR VITAE    MOSUNNY   62  33  33 N9        30.17R
WOODRUFF       MOSUNNY   62  33  33 N9        30.17R
RHINELANDER    MOSUNNY   62  33  33 N13G21    30.17S
6HR MIN TEMP:  50; 6HR MAX TEMP:  62;

EAGLE RIVER    MOSUNNY   60  27  28 W7G17     30.16R
LAND O LAKES   SUNNY     61  29  30 N6        30.17R
PHILLIPS       MOSUNNY   60  33  35 NE10      30.17R
TOMAHAWK       SUNNY     63  31  30 NW12G17   30.17R
MEDFORD        SUNNY     63  33  33 N10       30.17R
MERRILL        SUNNY     65  36  33 NW6       30.15S
$$

WIZ029-030-035-036-043>047-041900-
CENTRAL WISCONSIN

CITY           SKY/WX    TMP DP  RH WIND       PRES   REMARKS
WAUSAU         SUNNY     65  33  30 MISG      30.13S
6HR MIN TEMP:  53; 6HR MAX TEMP:  66;

MOSINEE        SUNNY     64  36  34 W8        30.15S
MARSHFIELD     SUNNY     67  37  33 NW6       30.15S
6HR MIN TEMP:  53; 6HR MAX TEMP:  68;

STEVENS POINT  SUNNY     66  35  30 N6        30.14S
WAUPACA        SUNNY     71  37  28 N3        30.13S
WAUTOMA        NOT AVBL
WISC RAPIDS    SUNNY     69  32  25 VRB7      30.15S
6HR MIN TEMP:  53; 6HR MAX TEMP:  70;

CAMP DOUGLAS   NOT AVBL
$$

WIZ011>013-019>022-031-037>040-048>050-041900-
NORTHEAST WISCONSIN

CITY           SKY/WX    TMP DP  RH WIND       PRES   REMARKS
ANTIGO         SUNNY     63  40  42 N12       30.15R
SHAWANO        SUNNY     71  37  28 W6        30.12R
OCONTO         SUNNY     67  42  40 E5        30.11R
STURGEON BAY   SUNNY     66  39  37 N12       30.14R
6HR MIN TEMP:  57; 6HR MAX TEMP:  66;

GREEN BAY      SUNNY     71  40  32 NE6       30.12R
6HR MIN TEMP:  60; 6HR MAX TEMP:  71;

MANITOWOC      NOT AVBL
APPLETON       SUNNY     68  39  34 N12       30.13R
CLINTONVILLE   SUNNY     68  36  30 N6        30.12R
OSHKOSH        MOSUNNY   68  42  38 E9        30.13R
6HR MIN TEMP:  57; 6HR MAX TEMP:  69;

$$

WIZ032>034-041-042-053>061-041900-
SOUTHWEST WISCONSIN

CITY           SKY/WX    TMP DP  RH WIND       PRES   REMARKS
LA CROSSE      PTSUNNY   72  38  29 VRB7      30.14S
6HR MIN TEMP:  58; 6HR MAX TEMP:  73;

SPARTA         MOSUNNY   69  33  25 N7        30.15S
VIROQUA        PTSUNNY   67  42  41 N7        30.15S
BOSCOBEL       MOSUNNY   75  48  38 VRB7      30.12S
6HR MIN TEMP:  57; 6HR MAX TEMP:  75;

PRAIRIE DU CHI PTSUNNY   69  51  53 NW5       30.12F
PLATTEVILLE    PTSUNNY   68  58  70 N5        30.12S
$$

WIZ056-057-062-063-064-067-068-041900-
SOUTH CENTRAL WISCONSIN

CITY           SKY/WX    TMP DP  RH WIND       PRES   REMARKS
REEDSBURG      MOSUNNY   67  53  59 NE5       30.13R
BARABOO/DELLS  NOT AVBL
LONE ROCK      NOT AVBL
MINERAL POINT  CLOUDY    70  54  56 CALM      30.13S
MADISON        PTSUNNY   72  55  55 NE10G20   30.11S
6HR MIN TEMP:  58; 6HR MAX TEMP:  72;

MIDDLETON      PTSUNNY   71  53  53 NE5       30.12S
WATERTOWN      PTSUNNY   67  57  71 CALM      30.11S
MONROE         PTSUNNY   68  59  73 N5        30.12S
JANESVILLE     CLOUDY    70  57  64 NW3       30.11S
$$

WIZ051-052-058>065-066-070>072-041900-
SOUTHEAST WISCONSIN

CITY           SKY/WX    TMP DP  RH WIND       PRES   REMARKS
MILWAUKEE      CLOUDY    65  54  67 NE10      30.12R
6HR MIN TEMP:  60; 6HR MAX TEMP:  68;

WAUKESHA       PTSUNNY   66  55  68 N7        30.13R
MILWAUKEE/TIMM PTSUNNY   68  54  60 N7        30.12R
RACINE         PTSUNNY   68  57  68 E8        30.14R
6HR MIN TEMP:  60; 6HR MAX TEMP:  69;

BURLINGTON     PTSUNNY   67  57  70 W3        30.12R
KENOSHA        CLOUDY    66  58  75 NE13      30.12R
6HR MIN TEMP:  59; 6HR MAX TEMP:  72;

FOND DU LAC    MOSUNNY   70  42  36 N8        30.13R
6HR MIN TEMP:  58; 6HR MAX TEMP:  70;

SHEBOYGAN      SUNNY     68  39  34 E12       30.13R
6HR MIN TEMP:  58; 6HR MAX TEMP:  69;

WEST BEND      CLOUDY    68  52  56 CALM      30.12R
JUNEAU         PTSUNNY   67  56  67 N7        30.13S
$$

LSZ147-162-041900-
LAKE SUPERIOR

STATION/POSITION TIME  TEMP    WIND        PRES    WAVE
                       AIR SEA DIR/SP/G            HT/PER
                 (UTC) (F)     (DEG/KT/KT) (MB)    (FT/S)
W MID LAKE BUOY  1650   38 36  210/  8/  8 1022.7R   1
DEVILS ISLAND    1700   49     230/  8/ 11 1022.9R
PORT WING        1700   55     280/  6/  7 1022.7
SAXON HARBOR     1700   58        CALM     1022.4R
$$

LMZ867-665-643>646-041900-
LAKE MICHIGAN

STATION/POSITION TIME  TEMP    WIND        PRES    WAVE
                       AIR SEA DIR/SP/G            HT/PER
                 (UTC) (F)     (DEG/KT/KT) (MB)    (FT/S)
CHAMBERS ISLAND  1700   56      40/  8/  9 1019.6R
NORTHPORT PIER   1700   54     330/  8/ 10 1019.6R
SISTER BAY       1732   64     360/ 16/ 20   N/A
KEWAUNEE LAKESHO 1706   56      40/  7/  9 1018.8R
SHEBOYGAN LAKESH 1700   56      20/  7/  7 1020.6R
PORT WASHINGTON  1700   55      40/  3/  5 1020.3R
ATWATER BUOY     1700   53      10/  4/  4 1020.8R
MILWAUKEE LAKESH 1700   51     130/  4/  4   N/A
KENOSHA   LAKESH 1700   66     120/  3/  5 1019.3R
$$

TC  - TEMPERATURE IN CELSIUS
VSB - VISIBILITY IN STATUTE MILES
WCI - WIND CHILL INDEX
HX  - HEAT INDEX



USA.gov is the U.S. government's official web portal to all federal, state and local government web resources and services.